Location: Nitra
(0.0000°N, 18.0833°E)
Time: 16:56:14
(UTC+02:00)

A-11 Canister half - Pass Details

Date: 05 April 2023
Orbit: 1513 x 1686 km, 47.2° (Epoch: 02 June)

Event Time Altitude Azimuth Distance (km) Brightness Sun altitude
Exits shadow 05:59:19 15° 271° (W) 3,527 10.2 -12.7°
Maximum altitude 06:05:11 25° 228° (SW) 2,869 10.0 -11.3°
Drops below altitude 10° 06:12:49 10° 177° (S) 3,838 11.1 -9.4°
Sets 06:16:42 0° 164° (SSE) 4,796 11.7 -8.4°
